weather.gov     
National Weather Service

Terminal Aerodrome Forecast
NWS Homepage
This page is being discontinued on March 12, 2014.
The same data is available at this site. Please update your bookmarks.
Thank you, and we apologize for the inconvenience.
Please send an email to SR-SRH.Webmaster@noaa.gov with any concerns.


Current Version
Previous Version:    01  02  03  04  05  06  07  08  09  10  11  12  13  14  
[Printable]
721
FTUS41 KBOX 241125
TAFBOS
TAF
KBOS 241125Z 2412/2518 34011G20KT P6SM OVC015
     FM242100 33008KT P6SM OVC025
     FM250000 31008KT P6SM BKN040
     FM250900 29007KT P6SM SCT100=




721
FTUS41 KBOX 241125
TAFBOS
TAF
KBOS 241125Z 2412/2518 34011G20KT P6SM OVC015
     FM242100 33008KT P6SM OVC025
     FM250000 31008KT P6SM BKN040
     FM250900 29007KT P6SM SCT100=


U.S. Dept. of Commerce
NOAA National Weather Service
1325 East West Highway
Silver Spring, MD 20910
E-mail: w-nws.webmaster@noaa.gov
Page last modified: May 16, 2007
NATIONAL WEATHER SERVICE: for Safety, for Work, for Fun - FOR LIFE